#timestamp,LO_Frequency,Hit,StdDev 
1688382015.7,286041111.6,N
1688382035.5,286041113.8,N
1688382055.3,286041115.6,N
1688382075.2,286041116.3,N
1688382095.0,286041116.3,N
1688382095.9,286041116.3,N
1688382115.8,286041113.3,N
1688382135.6,286041116.3,N
1688382155.4,286041115.1,N
1688382175.3,286041117.9,N
1688382195.1,286041115.6,N
1688382215.9,286041115.5,N
1688382235.7,286041116.3,N
1688382255.5,286041115.5,N
1688382275.4,286041115.8,N
1688382295.2,286041116.3,N
1688382315.0,286041113.3,N
1688382315.9,286041113.3,N
1688382335.8,286041113.6,N
1688382355.6,286041113.4,Y
1688382375.5,286047002.6,P
1688382395.3,286047000.2,N
1688382415.2,286046999.8,N
1688382435.9,286046999.9,N
1688382455.7,286047000.2,N
1688382475.6,286047000.3,N
1688382495.4,286047000.3,N
1688382515.2,286046999.9,N
1688382535.1,286047001.0,N
1688382536.0,286047001.0,N
1688382555.8,286047000.4,N
1688382575.7,286047001.0,N
1688382595.5,286047000.5,N
1688382615.3,286047000.6,N
1688382635.2,286047001.2,N
1688382655.0,286047001.1,N
1688382655.9,286047001.1,N
1688382675.7,286047000.2,N
1688382695.6,286047000.4,N
1688382715.4,286047000.6,N
1688382735.3,286047000.9,N
1688382755.1,286047000.4,N
1688382756.0,286047000.4,N
1688382775.8,286047000.9,N
1688382795.7,286046999.9,N
1688382815.5,286047000.1,N
1688382835.3,286047000.2,N
1688382855.2,286047000.0,N
1688382875.0,286046999.9,N
1688382875.9,286046999.9,N
1688382895.8,286047000.6,N
1688382915.6,286046999.9,N
1688382935.4,286047000.0,N
1688382955.3,286047000.6,N
1688382975.1,286047000.2,N
1688382995.8,286047000.1,N
1688383015.7,286047000.9,N
1688383035.5,286047001.0,N
1688383055.4,286047000.6,N
1688383075.2,286047000.8,N
1688383095.0,286047000.7,N
1688383095.9,286047000.7,N
1688383115.8,286047000.9,N
1688383135.6,286047001.1,N
1688383155.5,286047001.1,N
1688383175.3,286047000.3,N
1688383195.1,286047002.7,Y
1688383215.9,286047001.0,P
1688383235.7,286047000.7,N
1688383255.5,286047000.6,N
1688383275.4,286047000.3,N
1688383295.2,286047000.4,N
1688383315.1,286047000.4,N
1688383316.0,286047000.4,N
1688383335.8,286047000.7,Y
1688383355.6,286046998.6,P
1688383375.5,286046998.9,N
1688383395.3,286046998.8,N
1688383415.2,286046996.5,Y
1688383435.9,286046998.3,P
1688383455.7,286046998.6,P
1688383475.6,286046998.6,P
1688383495.4,286046998.7,Y
1688383515.2,286047000.4,P
1688383535.1,286047002.8,P
1688383536.0,286047002.8,N
1688383555.8,286046999.9,N
1688383575.7,286047000.2,N
1688383595.5,286047002.6,N
1688383615.3,286047002.8,N
1688383635.2,286047002.3,N
1688383655.0,286047002.7,N
1688383655.9,286047002.7,N
1688383675.8,286046999.7,N
1688383695.6,286047002.5,N
1688383715.4,286047000.2,N
1688383735.3,286047002.5,N
1688383755.1,286047000.2,N
1688383775.8,286047002.7,N
1688383795.7,286047000.5,N
1688383815.5,286046999.9,N
1688383835.4,286046999.9,N
1688383855.2,286046999.7,N
1688383875.0,286047002.7,N
1688383875.9,286047002.7,N
1688383895.8,286046999.7,N
1688383915.6,286047000.1,N
1688383935.4,286047000.0,N
1688383955.3,286047000.0,N
1688383975.1,286047000.9,N
1688383995.9,286047000.6,N
1688384015.7,286047001.0,N
1688384035.5,286047000.8,N
1688384055.4,286047000.9,N
1688384075.2,286046998.2,N
1688384095.0,286046998.1,N
1688384095.9,286046998.1,N
1688384115.8,286047000.9,N
1688384135.6,286046998.4,N
1688384155.5,286046999.3,N
1688384175.3,286046999.5,N
1688384195.1,286046998.6,N
1688384215.9,286046998.7,N
1688384235.7,286046998.2,N
1688384255.6,286046998.1,N
1688384275.4,286046998.2,N
1688384295.2,286046998.4,N
1688384315.1,286046998.8,N
1688384316.0,286046998.8,N
1688384335.8,286046999.0,N
1688384355.6,286046998.5,N
1688384375.5,286046998.3,N
1688384395.3,286047001.1,N
1688384415.2,286047000.9,N
1688384435.9,286046998.5,N
1688384455.7,286046998.1,N
1688384475.6,286046998.2,N
1688384495.4,286046998.5,N
1688384515.2,286047001.1,N
1688384535.1,286047001.0,N
1688384536.0,286047001.0,N
1688384555.8,286047000.7,N
1688384575.7,286047000.8,N
1688384595.5,286046999.3,N
1688384615.3,286046998.9,N
1688384635.2,286046998.6,N
1688384655.0,286047000.5,N
1688384655.9,286047000.5,N
1688384675.7,286047000.3,N
1688384695.6,286046999.7,N
1688384715.4,286047000.1,N
1688384735.3,286047001.2,N
1688384755.1,286047001.2,N
1688384775.8,286047000.4,N
1688384795.7,286047000.6,N
1688384815.5,286047000.7,N
1688384835.3,286047001.0,N
1688384855.2,286047001.2,N
1688384875.0,286047000.8,N
1688384875.9,286047000.8,N
1688384925.8,286047000.4,E
1688384935.7,286046998.6,N
1688384955.6,286046998.5,P
1688384975.4,286046998.5,P
1688384995.2,286046998.2,Y
1688385015.1,286047000.4,P
1688385016.0,286047000.4,N
1688385035.8,286047000.7,N
1688385055.6,286047000.4,N
1688385075.5,286047001.0,N
1688385095.3,286047001.1,N
1688385115.2,286046999.9,N
1688385135.9,286047000.5,N
1688385155.7,286047000.9,N
1688385175.6,286047001.0,N
1688385195.4,286047000.6,N
1688385215.2,286047001.2,N
1688385235.1,286047001.0,N
1688385236.0,286047001.0,N
1688385255.8,286047001.1,N
1688385275.7,286047001.2,N
1688385295.5,286046998.2,N
1688385315.4,286047000.9,N
1688385335.2,286046999.9,N
1688385355.0,286046999.7,N
1688385355.9,286046999.7,N
1688385375.8,286047002.7,Y
1688385395.6,286047002.3,P
1688385415.5,286047001.5,N
1688385435.3,286047002.5,P
1688385455.1,286047002.2,N
1688385475.9,286047002.5,Y
1688385495.7,286047000.9,P
1688385515.5,286047001.0,N
1688385535.4,286047000.7,N
1688385555.2,286047000.9,N
1688385575.1,286047001.0,N
1688385576.0,286047001.0,N
1688385595.8,286047000.4,N
